Location: Seven Kings
(51.5667°N, 0.1000°E)
Time: 03:40:57
(UTC+00:00)

Cosmos 1844 Rocket - Pass Details

Date: 29 October 2020
Orbit: 823 x 846 km, 71.0° (Epoch: 24 November)

Event Time Altitude Azimuth Distance (km) Brightness Sun altitude
Rises 20:07:47 0° 330° (NNW) 3,414 6.5 -32.9°
Reaches altitude 10° 20:10:17 10° 335° (NNW) 2,478 5.6 -33.2°
Enters shadow 20:13:16 31° 349° (N) 1,461 4.1 -33.7°
